Station Historical Data
Daily Summary for August 1, 2017 Units:  English    Metric   Both
« Previous Day
Next Day »
Daily Weekly Monthly Yearly Custom
  High: Low: Average:
Temperature: 94.9 °F 72.7 °F 82 °F
Dew Point: 64.1 °F 56.1 °F 59.7 °F
Humidity: 66 % 31 % 48 %
Wind Speed: 9.0 mph 0.0 mph 0.9 mph
Wind Gust: 14.0 mph - -
Wind:- - SSE
Pressure: 29.92 in 29.81 in -
Precipitation: 0.00 in    
Historical Graphs
 
 
Tabular Data for August 1, 2017
Time Temperature Dew Point Pressure Wind Wind Speed Wind Gust Humidity Rainfall Rate (Hourly) solar
00:04 75.8 °F 56.4 °F 29.92 in Calm   4.0 mph 51 % 0.00 in 0.00 W/m2
00:09 75.7 °F 56.3 °F 29.92 in WSW 4.0 mph 5.0 mph 51 % 0.00 in 0.00 W/m2
00:14 75.7 °F 56.3 °F 29.91 in Calm   1.0 mph 51 % 0.00 in 0.00 W/m2
00:19 75.7 °F 56.3 °F 29.91 in Calm   6.0 mph 51 % 0.00 in 0.00 W/m2
00:24 75.6 °F 56.2 °F 29.91 in South 4.0 mph 7.0 mph 51 % 0.00 in 0.00 W/m2
00:29 75.6 °F 56.2 °F 29.91 in SE 4.0 mph 9.0 mph 51 % 0.00 in 0.00 W/m2
00:34 75.6 °F 56.8 °F 29.91 in ESE 5.0 mph 8.0 mph 52 % 0.00 in 0.00 W/m2
00:39 75.5 °F 56.7 °F 29.91 in Calm   9.0 mph 52 % 0.00 in 0.00 W/m2
00:44 75.4 °F 56.6 °F 29.91 in ESE 2.0 mph 7.0 mph 52 % 0.00 in 0.00 W/m2
00:49 75.4 °F 56.6 °F 29.91 in East 6.0 mph 7.0 mph 52 % 0.00 in 0.00 W/m2
00:54 75.4 °F 56.6 °F 29.91 in Calm   7.0 mph 52 % 0.00 in 0.00 W/m2
00:59 75.4 °F 57.1 °F 29.91 in Calm   8.0 mph 53 % 0.00 in 0.00 W/m2
01:04 75.4 °F 57.1 °F 29.91 in East 5.0 mph 9.0 mph 53 % 0.00 in 0.00 W/m2
01:09 75.4 °F 57.1 °F 29.91 in East 5.0 mph 8.0 mph 53 % 0.00 in 0.00 W/m2
01:15 75.4 °F 57.1 °F 29.90 in East 6.0 mph 8.0 mph 53 % 0.00 in 0.00 W/m2
01:20 75.4 °F 57.1 °F 29.90 in East 4.0 mph 7.0 mph 53 % 0.00 in 0.00 W/m2
01:25 75.4 °F 57.1 °F 29.90 in East 2.0 mph 8.0 mph 53 % 0.00 in 0.00 W/m2
01:30 75.5 °F 57.2 °F 29.90 in Calm   5.0 mph 53 % 0.00 in 0.00 W/m2
01:35 75.5 °F 57.2 °F 29.90 in East 5.0 mph 7.0 mph 53 % 0.00 in 0.00 W/m2
01:40 75.5 °F 57.2 °F 29.90 in East 4.0 mph 9.0 mph 53 % 0.00 in 0.00 W/m2
01:45 75.5 °F 57.2 °F 29.90 in East 6.0 mph 8.0 mph 53 % 0.00 in 0.00 W/m2
01:50 75.5 °F 57.2 °F 29.90 in East 4.0 mph 7.0 mph 53 % 0.00 in 0.00 W/m2
01:55 75.5 °F 57.2 °F 29.89 in East 4.0 mph 6.0 mph 53 % 0.00 in 0.00 W/m2
02:00 75.5 °F 57.2 °F 29.89 in East 5.0 mph 7.0 mph 53 % 0.00 in 0.00 W/m2
02:05 75.5 °F 57.2 °F 29.89 in Calm   6.0 mph 53 % 0.00 in 0.00 W/m2
02:10 75.5 °F 57.2 °F 29.89 in Calm   5.0 mph 53 % 0.00 in 0.00 W/m2
02:15 75.5 °F 57.7 °F 29.89 in Calm   1.0 mph 54 % 0.00 in 0.00 W/m2
02:20 75.4 °F 57.6 °F 29.89 in Calm   1.0 mph 54 % 0.00 in 0.00 W/m2
02:25 75.3 °F 57.5 °F 29.89 in Calm   1.0 mph 54 % 0.00 in 0.00 W/m2
02:30 75.3 °F 57.5 °F 29.88 in Calm   1.0 mph 54 % 0.00 in 0.00 W/m2
02:35 75.2 °F 57.4 °F 29.89 in Calm     54 % 0.00 in 0.00 W/m2
02:40 75.2 °F 57.9 °F 29.89 in East 2.0 mph 7.0 mph 55 % 0.00 in 0.00 W/m2
02:45 75.2 °F 57.9 °F 29.89 in East 2.0 mph 8.0 mph 55 % 0.00 in 0.00 W/m2
02:50 75.1 °F 57.8 °F 29.89 in Calm   7.0 mph 55 % 0.00 in 0.00 W/m2
02:55 75.1 °F 57.8 °F 29.89 in Calm   1.0 mph 55 % 0.00 in 0.00 W/m2
03:00 74.9 °F 57.7 °F 29.88 in East 4.0 mph 8.0 mph 55 % 0.00 in 0.00 W/m2
03:05 74.9 °F 57.7 °F 29.88 in Calm   5.0 mph 55 % 0.00 in 0.00 W/m2
03:10 74.8 °F 57.6 °F 29.89 in East 6.0 mph 6.0 mph 55 % 0.00 in 0.00 W/m2
03:15 74.8 °F 57.6 °F 29.88 in East 2.0 mph 5.0 mph 55 % 0.00 in 0.00 W/m2
03:20 74.6 °F 57.4 °F 29.88 in Calm   6.0 mph 55 % 0.00 in 0.00 W/m2
03:25 74.4 °F 57.7 °F 29.88 in Calm   1.0 mph 56 % 0.00 in 0.00 W/m2
03:30 74.3 °F 57.6 °F 29.88 in Calm   1.0 mph 56 % 0.00 in 0.00 W/m2
03:35 74.1 °F 57.4 °F 29.88 in Calm   1.0 mph 56 % 0.00 in 0.00 W/m2
03:40 74.0 °F 57.3 °F 29.88 in Calm   5.0 mph 56 % 0.00 in 0.00 W/m2
03:45 73.9 °F 57.2 °F 29.88 in Calm   7.0 mph 56 % 0.00 in 0.00 W/m2
03:50 73.8 °F 57.6 °F 29.88 in Calm   5.0 mph 57 % 0.00 in 0.00 W/m2
03:55 73.8 °F 57.6 °F 29.88 in Calm   5.0 mph 57 % 0.00 in 0.00 W/m2
04:00 73.8 °F 57.6 °F 29.88 in Calm   1.0 mph 57 % 0.00 in 0.00 W/m2
04:05 73.8 °F 57.6 °F 29.88 in Calm   4.0 mph 57 % 0.00 in 0.00 W/m2
04:10 73.8 °F 57.6 °F 29.88 in Calm   1.0 mph 57 % 0.00 in 0.00 W/m2
04:15 73.7 °F 57.5 °F 29.88 in East 2.0 mph 4.0 mph 57 % 0.00 in 0.00 W/m2
04:20 73.7 °F 57.5 °F 29.87 in Calm   1.0 mph 57 % 0.00 in 0.00 W/m2
04:25 73.7 °F 57.5 °F 29.87 in East 1.0 mph 5.0 mph 57 % 0.00 in 0.00 W/m2
04:28 73.6 °F 57.9 °F 29.87 in ENE 5.0 mph 6.0 mph 58 % 0.00 in 0.00 W/m2
04:33 73.5 °F 57.8 °F 29.87 in ENE 1.0 mph 5.0 mph 58 % 0.00 in 0.00 W/m2
04:38 73.4 °F 57.7 °F 29.87 in Calm   1.0 mph 58 % 0.00 in 0.00 W/m2
04:43 73.4 °F 57.7 °F 29.87 in Calm   4.0 mph 58 % 0.00 in 0.00 W/m2
04:49 73.4 °F 57.7 °F 29.87 in ENE 4.0 mph 6.0 mph 58 % 0.00 in 0.00 W/m2
04:54 73.4 °F 57.7 °F 29.87 in ENE 5.0 mph 6.0 mph 58 % 0.00 in 0.00 W/m2
04:59 73.4 °F 57.7 °F 29.87 in Calm   5.0 mph 58 % 0.00 in 0.00 W/m2
05:04 73.4 °F 57.3 °F 29.87 in Calm   1.0 mph 57 % 0.00 in 0.00 W/m2
05:09 73.5 °F 57.3 °F 29.87 in Calm   1.0 mph 57 % 0.00 in 0.00 W/m2
05:14 73.5 °F 57.3 °F 29.87 in Calm   5.0 mph 57 % 0.00 in 0.00 W/m2
05:19 73.5 °F 57.3 °F 29.87 in ENE 3.0 mph 5.0 mph 57 % 0.00 in 0.00 W/m2
05:24 73.5 °F 57.3 °F 29.87 in ENE 4.0 mph 6.0 mph 57 % 0.00 in 0.00 W/m2
05:29 73.2 °F 57.1 °F 29.87 in Calm   4.0 mph 57 % 0.00 in 0.00 W/m2
05:34 73.1 °F 57.0 °F 29.87 in Calm   1.0 mph 57 % 0.00 in 0.00 W/m2
05:35 73.0 °F 56.9 °F 29.87 in Calm   1.0 mph 57 % 0.00 in 0.00 W/m2
05:40 73.0 °F 56.9 °F 29.87 in Calm   1.0 mph 57 % 0.00 in 0.00 W/m2
05:45 73.0 °F 56.9 °F 29.87 in ENE 4.0 mph 6.0 mph 57 % 0.00 in 0.00 W/m2
05:50 72.9 °F 56.8 °F 29.87 in ENE 2.0 mph 5.0 mph 57 % 0.00 in 0.00 W/m2
05:55 72.7 °F 56.6 °F 29.87 in ENE 3.0 mph 5.0 mph 57 % 0.00 in 0.00 W/m2
06:00 72.7 °F 56.6 °F 29.87 in ENE 2.0 mph 4.0 mph 57 % 0.00 in 0.00 W/m2
06:05 72.7 °F 56.6 °F 29.87 in ENE 2.0 mph 6.0 mph 57 % 0.00 in 5.00 W/m2
06:10 72.7 °F 56.1 °F 29.87 in Calm   5.0 mph 56 % 0.00 in 7.00 W/m2
06:15 72.7 °F 56.1 °F 29.87 in ENE 4.0 mph 5.0 mph 56 % 0.00 in 12.00 W/m2
06:20 72.7 °F 56.1 °F 29.87 in Calm   8.0 mph 56 % 0.00 in 16.00 W/m2
06:25 72.8 °F 56.2 °F 29.87 in Calm   5.0 mph 56 % 0.00 in 19.00 W/m2
06:30 72.8 °F 56.2 °F 29.87 in Calm   4.0 mph 56 % 0.00 in 23.00 W/m2
06:35 72.8 °F 56.2 °F 29.88 in Calm   4.0 mph 56 % 0.00 in 30.00 W/m2
06:40 72.8 °F 56.2 °F 29.88 in Calm   4.0 mph 56 % 0.00 in 39.00 W/m2
06:45 72.8 °F 56.7 °F 29.88 in ENE 3.0 mph 4.0 mph 57 % 0.00 in 49.00 W/m2
06:50 72.8 °F 56.7 °F 29.88 in Calm   3.0 mph 57 % 0.00 in 60.00 W/m2
06:55 72.8 °F 56.7 °F 29.88 in Calm   3.0 mph 57 % 0.00 in 72.00 W/m2
07:00 72.8 °F 57.2 °F 29.88 in ENE 1.0 mph 3.0 mph 58 % 0.00 in 84.00 W/m2
07:05 72.8 °F 57.2 °F 29.88 in Calm   4.0 mph 58 % 0.00 in 97.00 W/m2
07:10 72.7 °F 57.6 °F 29.87 in Calm   5.0 mph 59 % 0.00 in 111.00 W/m2
07:16 72.7 °F 57.6 °F 29.88 in Calm   4.0 mph 59 % 0.00 in 127.00 W/m2
07:21 72.7 °F 57.6 °F 29.88 in Calm   3.0 mph 59 % 0.00 in 144.00 W/m2
07:26 72.7 °F 58.0 °F 29.88 in Calm   1.0 mph 60 % 0.00 in 162.00 W/m2
07:31 72.7 °F 58.0 °F 29.88 in Calm     60 % 0.00 in 181.00 W/m2
07:36 72.7 °F 58.5 °F 29.88 in Calm     61 % 0.00 in 199.00 W/m2
07:41 72.7 °F 58.5 °F 29.88 in Calm   1.0 mph 61 % 0.00 in 218.00 W/m2
07:46 72.8 °F 59.0 °F 29.88 in Calm     62 % 0.00 in 234.00 W/m2
07:51 72.8 °F 59.5 °F 29.88 in Calm     63 % 0.00 in 253.00 W/m2
07:56 72.8 °F 59.5 °F 29.88 in Calm     63 % 0.00 in 269.00 W/m2
08:01 72.9 °F 60.5 °F 29.88 in Calm     65 % 0.00 in 285.00 W/m2
08:06 73.0 °F 60.5 °F 29.88 in Calm     65 % 0.00 in 301.00 W/m2
08:11 73.1 °F 60.7 °F 29.88 in Calm     65 % 0.00 in 318.00 W/m2
08:16 73.2 °F 61.2 °F 29.88 in Calm     66 % 0.00 in 334.00 W/m2
08:21 73.3 °F 60.8 °F 29.88 in Calm     65 % 0.00 in 350.00 W/m2
08:26 73.6 °F 61.1 °F 29.88 in Calm     65 % 0.00 in 364.00 W/m2
08:31 73.8 °F 60.9 °F 29.88 in Calm     64 % 0.00 in 380.00 W/m2
08:36 74.1 °F 61.6 °F 29.88 in Calm     65 % 0.00 in 396.00 W/m2
08:41 74.5 °F 62.0 °F 29.88 in Calm     65 % 0.00 in 411.00 W/m2
08:46 74.8 °F 62.3 °F 29.88 in Calm     65 % 0.00 in 427.00 W/m2
08:51 75.2 °F 63.1 °F 29.88 in Calm     66 % 0.00 in 441.00 W/m2
08:56 75.5 °F 63.4 °F 29.88 in Calm     66 % 0.00 in 459.00 W/m2
09:01 75.7 °F 62.2 °F 29.88 in Calm     63 % 0.00 in 473.00 W/m2
09:06 76.1 °F 63.0 °F 29.88 in Calm     64 % 0.00 in 487.00 W/m2
09:11 76.4 °F 61.5 °F 29.88 in Calm     60 % 0.00 in 503.00 W/m2
09:16 76.8 °F 61.9 °F 29.88 in Calm     60 % 0.00 in 519.00 W/m2
09:21 77.3 °F 61.9 °F 29.87 in ENE 1.0 mph 3.0 mph 59 % 0.00 in 534.00 W/m2
09:26 78.0 °F 60.5 °F 29.87 in ENE 1.0 mph 2.0 mph 55 % 0.00 in 548.00 W/m2
09:31 78.6 °F 61.6 °F 29.87 in Calm     56 % 0.00 in 563.00 W/m2
09:36 79.3 °F 62.3 °F 29.87 in Calm   3.0 mph 56 % 0.00 in 577.00 W/m2
09:41 79.7 °F 62.6 °F 29.87 in Calm   5.0 mph 56 % 0.00 in 592.00 W/m2
09:46 80.1 °F 59.8 °F 29.87 in Calm   2.0 mph 50 % 0.00 in 605.00 W/m2
09:51 80.5 °F 60.2 °F 29.87 in NNE 2.0 mph 6.0 mph 50 % 0.00 in 617.00 W/m2
09:56 80.9 °F 60.5 °F 29.87 in Calm   1.0 mph 50 % 0.00 in 629.00 W/m2
10:01 81.1 °F 60.7 °F 29.87 in Calm     50 % 0.00 in 643.00 W/m2
10:06 81.4 °F 61.5 °F 29.87 in Calm     51 % 0.00 in 656.00 W/m2
10:11 81.6 °F 61.7 °F 29.87 in Calm     51 % 0.00 in 668.00 W/m2
10:16 81.9 °F 60.9 °F 29.87 in Calm     49 % 0.00 in 680.00 W/m2
10:21 82.1 °F 61.1 °F 29.87 in Calm     49 % 0.00 in 693.00 W/m2
10:26 82.4 °F 60.2 °F 29.87 in Calm     47 % 0.00 in 703.00 W/m2
10:31 82.5 °F 60.8 °F 29.87 in Calm   1.0 mph 48 % 0.00 in 715.00 W/m2
10:36 82.8 °F 61.1 °F 29.87 in Calm   1.0 mph 48 % 0.00 in 726.00 W/m2
10:41 83.1 °F 60.8 °F 29.86 in Calm     47 % 0.00 in 737.00 W/m2
10:46 83.4 °F 61.1 °F 29.86 in Calm     47 % 0.00 in 747.00 W/m2
10:51 83.6 °F 60.7 °F 29.86 in Calm     46 % 0.00 in 758.00 W/m2
10:56 83.8 °F 60.2 °F 29.86 in Calm     45 % 0.00 in 766.00 W/m2
11:01 84.1 °F 61.1 °F 29.86 in Calm   3.0 mph 46 % 0.00 in 775.00 W/m2
11:06 84.3 °F 61.3 °F 29.86 in Calm     46 % 0.00 in 786.00 W/m2
11:11 84.7 °F 61.7 °F 29.86 in North 1.0 mph 3.0 mph 46 % 0.00 in 791.00 W/m2
11:16 84.9 °F 62.4 °F 29.86 in Calm     47 % 0.00 in 800.00 W/m2
11:21 85.2 °F 63.3 °F 29.86 in Calm   1.0 mph 48 % 0.00 in 809.00 W/m2
11:26 85.5 °F 62.4 °F 29.86 in Calm   1.0 mph 46 % 0.00 in 816.00 W/m2
11:31 85.9 °F 62.1 °F 29.86 in Calm     45 % 0.00 in 823.00 W/m2
11:36 86.2 °F 63.0 °F 29.86 in Calm   1.0 mph 46 % 0.00 in 831.00 W/m2
11:41 86.6 °F 62.8 °F 29.86 in Calm     45 % 0.00 in 837.00 W/m2
11:47 86.9 °F 62.4 °F 29.86 in Calm   1.0 mph 44 % 0.00 in 844.00 W/m2
11:52 87.1 °F 62.6 °F 29.86 in NNW 1.0 mph 3.0 mph 44 % 0.00 in 849.00 W/m2
11:57 87.3 °F 62.7 °F 29.86 in Calm   4.0 mph 44 % 0.00 in 854.00 W/m2
12:02 87.6 °F 63.0 °F 29.86 in Calm   3.0 mph 44 % 0.00 in 860.00 W/m2
12:07 88.0 °F 63.4 °F 29.86 in Calm   3.0 mph 44 % 0.00 in 865.00 W/m2
12:10 88.2 °F 63.6 °F 29.86 in NW 1.0 mph 5.0 mph 44 % 0.00 in 868.00 W/m2
12:15 88.7 °F 62.0 °F 29.85 in Calm   1.0 mph 41 % 0.00 in 874.00 W/m2
12:20 89.4 °F 63.3 °F 29.85 in NW 2.0 mph 2.0 mph 42 % 0.00 in 879.00 W/m2
12:25 89.9 °F 63.8 °F 29.85 in NW 3.0 mph 5.0 mph 42 % 0.00 in 882.00 W/m2
12:30 90.4 °F 61.4 °F 29.85 in NW 2.0 mph 3.0 mph 38 % 0.00 in 886.00 W/m2
12:35 90.8 °F 63.9 °F 29.85 in Calm   1.0 mph 41 % 0.00 in 889.00 W/m2
12:40 90.9 °F 62.5 °F 29.85 in Calm   1.0 mph 39 % 0.00 in 889.00 W/m2
12:45 91.1 °F 64.1 °F 29.85 in Calm   2.0 mph 41 % 0.00 in 891.00 W/m2
12:47 91.2 °F 63.5 °F 29.85 in Calm   1.0 mph 40 % 0.00 in 891.00 W/m2
12:52 91.5 °F 63.1 °F 29.85 in Calm   2.0 mph 39 % 0.00 in 893.00 W/m2
12:59 92.0 °F 63.5 °F 29.85 in Calm   6.0 mph 39 % 0.00 in 895.00 W/m2
13:04 92.6 °F 63.3 °F 29.85 in Calm   5.0 mph 38 % 0.00 in 895.00 W/m2
13:07 92.9 °F 62.8 °F 29.85 in Calm     37 % 0.00 in 896.00 W/m2
13:10 93.0 °F 63.7 °F 29.85 in Calm   5.0 mph 38 % 0.00 in 895.00 W/m2
13:11 93.0 °F 63.7 °F 29.85 in Calm     38 % 0.00 in 895.00 W/m2
13:18 93.4 °F 63.3 °F 29.85 in WSW 4.0 mph 9.0 mph 37 % 0.00 in 893.00 W/m2
13:23 94.1 °F 63.9 °F 29.85 in Calm   2.0 mph 37 % 0.00 in 893.00 W/m2
13:28 94.6 °F 63.5 °F 29.85 in Calm   4.0 mph 36 % 0.00 in 889.00 W/m2
13:35 94.6 °F 62.7 °F 29.85 in Calm   4.0 mph 35 % 0.00 in 886.00 W/m2
13:40 94.3 °F 62.5 °F 29.85 in SW 2.0 mph 7.0 mph 35 % 0.00 in 884.00 W/m2
13:45 94.4 °F 61.7 °F 29.84 in Calm   6.0 mph 34 % 0.00 in 884.00 W/m2
13:50 94.5 °F 61.8 °F 29.84 in SW 1.0 mph 6.0 mph 34 % 0.00 in 882.00 W/m2
13:55 94.5 °F 61.8 °F 29.84 in WSW 7.0 mph 7.0 mph 34 % 0.00 in 879.00 W/m2
14:00 94.8 °F 62.9 °F 29.84 in Calm   7.0 mph 35 % 0.00 in 872.00 W/m2
14:05 94.9 °F 60.5 °F 29.84 in WSW 1.0 mph 7.0 mph 32 % 0.00 in 872.00 W/m2
14:10 94.7 °F 60.3 °F 29.84 in Calm   3.0 mph 32 % 0.00 in 868.00 W/m2
14:15 94.6 °F 61.9 °F 29.84 in WSW 5.0 mph 7.0 mph 34 % 0.00 in 863.00 W/m2
14:20 94.3 °F 60.8 °F 29.84 in WSW 4.0 mph 6.0 mph 33 % 0.00 in 854.00 W/m2
14:25 94.1 °F 61.5 °F 29.84 in Calm   6.0 mph 34 % 0.00 in 851.00 W/m2
14:30 94.1 °F 61.5 °F 29.84 in SW 1.0 mph 8.0 mph 34 % 0.00 in 847.00 W/m2
14:35 94.1 °F 60.6 °F 29.84 in WSW 5.0 mph 8.0 mph 33 % 0.00 in 840.00 W/m2
14:40 94.1 °F 61.5 °F 29.84 in Calm   3.0 mph 34 % 0.00 in 833.00 W/m2
14:45 93.9 °F 61.3 °F 29.84 in WSW 3.0 mph 6.0 mph 34 % 0.00 in 830.00 W/m2
14:50 93.7 °F 60.3 °F 29.84 in WSW 3.0 mph 7.0 mph 33 % 0.00 in 819.00 W/m2
14:55 93.6 °F 60.2 °F 29.84 in Calm   3.0 mph 33 % 0.00 in 809.00 W/m2
15:00 93.5 °F 60.1 °F 29.84 in WSW 4.0 mph 10.0 mph 33 % 0.00 in 802.00 W/m2
15:05 93.3 °F 59.9 °F 29.83 in Calm   7.0 mph 33 % 0.00 in 789.00 W/m2
15:10 93.3 °F 60.8 °F 29.83 in Calm   4.0 mph 34 % 0.00 in 782.00 W/m2
15:15 93.2 °F 60.7 °F 29.83 in West 1.0 mph 4.0 mph 34 % 0.00 in 770.00 W/m2
15:20 93.2 °F 61.5 °F 29.83 in West 2.0 mph 4.0 mph 35 % 0.00 in 763.00 W/m2
15:25 93.2 °F 61.5 °F 29.83 in Calm   5.0 mph 35 % 0.00 in 752.00 W/m2
15:30 93.3 °F 59.9 °F 29.83 in Calm   6.0 mph 33 % 0.00 in 744.00 W/m2
15:36 93.5 °F 61.0 °F 29.83 in Calm   7.0 mph 34 % 0.00 in 733.00 W/m2
15:41 93.4 °F 60.9 °F 29.83 in Calm   3.0 mph 34 % 0.00 in 719.00 W/m2
15:46 93.3 °F 59.9 °F 29.83 in West 1.0 mph 2.0 mph 33 % 0.00 in 710.00 W/m2
15:47 93.3 °F 59.9 °F 29.83 in West 5.0 mph 5.0 mph 33 % 0.00 in 708.00 W/m2
15:52 93.1 °F 59.8 °F 29.83 in West 1.0 mph 1.0 mph 33 % 0.00 in 696.00 W/m2
15:57 93.0 °F 60.5 °F 29.83 in Calm     34 % 0.00 in 682.00 W/m2
16:02 92.9 °F 58.7 °F 29.83 in West 4.0 mph 4.0 mph 32 % 0.00 in 671.00 W/m2
16:07 92.9 °F 59.6 °F 29.83 in Calm     33 % 0.00 in 659.00 W/m2
16:12 92.9 °F 58.7 °F 29.83 in Calm   3.0 mph 32 % 0.00 in 647.00 W/m2
16:17 93.1 °F 60.6 °F 29.83 in Calm     34 % 0.00 in 635.00 W/m2
16:23 93.3 °F 58.2 °F 29.83 in Calm     31 % 0.00 in 621.00 W/m2
16:28 93.4 °F 60.0 °F 29.83 in Calm     33 % 0.00 in 610.00 W/m2
16:33 93.4 °F 60.9 °F 29.82 in Calm   5.0 mph 34 % 0.00 in 598.00 W/m2
16:38 93.4 °F 61.7 °F 29.82 in Calm     35 % 0.00 in 582.00 W/m2
16:43 93.4 °F 60.0 °F 29.82 in Calm     33 % 0.00 in 568.00 W/m2
16:48 93.4 °F 60.0 °F 29.82 in Calm   3.0 mph 33 % 0.00 in 552.00 W/m2
16:53 93.5 °F 61.0 °F 29.82 in Calm     34 % 0.00 in 538.00 W/m2
16:58 93.5 °F 61.0 °F 29.82 in Calm   3.0 mph 34 % 0.00 in 520.00 W/m2
17:03 93.5 °F 60.1 °F 29.81 in West 4.0 mph 5.0 mph 33 % 0.00 in 508.00 W/m2
17:08 93.3 °F 59.9 °F 29.81 in Calm   3.0 mph 33 % 0.00 in 490.00 W/m2
17:13 93.2 °F 59.8 °F 29.81 in Calm   1.0 mph 33 % 0.00 in 473.00 W/m2
17:18 93.1 °F 60.6 °F 29.81 in WSW 1.0 mph 3.0 mph 34 % 0.00 in 461.00 W/m2
17:23 93.0 °F 61.3 °F 29.81 in West 5.0 mph 6.0 mph 35 % 0.00 in 445.00 W/m2
17:28 93.0 °F 60.5 °F 29.81 in West 4.0 mph 4.0 mph 34 % 0.00 in 431.00 W/m2
17:33 92.9 °F 61.2 °F 29.81 in Calm   4.0 mph 35 % 0.00 in 417.00 W/m2
17:38 92.8 °F 62.0 °F 29.81 in WSW 2.0 mph 6.0 mph 36 % 0.00 in 399.00 W/m2
17:43 92.7 °F 60.2 °F 29.81 in Calm   5.0 mph 34 % 0.00 in 387.00 W/m2
17:48 92.6 °F 60.2 °F 29.81 in Calm   6.0 mph 34 % 0.00 in 371.00 W/m2
17:53 92.5 °F 60.9 °F 29.81 in Calm   4.0 mph 35 % 0.00 in 357.00 W/m2
17:58 92.4 °F 60.8 °F 29.81 in Calm   1.0 mph 35 % 0.00 in 345.00 W/m2
18:03 92.3 °F 61.5 °F 29.81 in Calm   1.0 mph 36 % 0.00 in 338.00 W/m2
18:08 92.1 °F 61.3 °F 29.81 in Calm     36 % 0.00 in 315.00 W/m2
18:13 91.9 °F 61.9 °F 29.81 in WSW 1.0 mph 1.0 mph 37 % 0.00 in 295.00 W/m2
18:18 91.7 °F 62.5 °F 29.81 in WSW 1.0 mph 5.0 mph 38 % 0.00 in 278.00 W/m2
18:23 91.4 °F 63.0 °F 29.81 in Calm   4.0 mph 39 % 0.00 in 264.00 W/m2
18:28 91.1 °F 62.7 °F 29.81 in Calm   4.0 mph 39 % 0.00 in 246.00 W/m2
18:33 90.7 °F 63.1 °F 29.81 in SW 1.0 mph 5.0 mph 40 % 0.00 in 230.00 W/m2
18:38 90.4 °F 62.8 °F 29.81 in SW 1.0 mph 6.0 mph 40 % 0.00 in 214.00 W/m2
18:43 89.9 °F 63.1 °F 29.81 in Calm   4.0 mph 41 % 0.00 in 202.00 W/m2
18:48 89.6 °F 62.8 °F 29.81 in Calm   5.0 mph 41 % 0.00 in 186.00 W/m2
18:53 89.1 °F 62.4 °F 29.81 in Calm     41 % 0.00 in 171.00 W/m2
18:58 88.7 °F 62.7 °F 29.82 in Calm     42 % 0.00 in 151.00 W/m2
19:03 88.3 °F 63.0 °F 29.82 in Calm   1.0 mph 43 % 0.00 in 132.00 W/m2
19:08 87.9 °F 63.3 °F 29.82 in SW 1.0 mph 1.0 mph 44 % 0.00 in 114.00 W/m2
19:13 87.4 °F 63.5 °F 29.82 in Calm     45 % 0.00 in 98.00 W/m2
19:18 87.0 °F 63.7 °F 29.82 in Calm     46 % 0.00 in 88.00 W/m2
19:23 86.6 °F 63.4 °F 29.82 in Calm   1.0 mph 46 % 0.00 in 74.00 W/m2
19:28 86.3 °F 63.1 °F 29.82 in Calm   1.0 mph 46 % 0.00 in 62.00 W/m2
19:34 85.9 °F 62.7 °F 29.82 in Calm   4.0 mph 46 % 0.00 in 53.00 W/m2
19:39 85.6 °F 62.5 °F 29.83 in Calm   2.0 mph 46 % 0.00 in 44.00 W/m2
19:44 85.2 °F 62.1 °F 29.83 in Calm   2.0 mph 46 % 0.00 in 33.00 W/m2
19:49 84.8 °F 61.7 °F 29.83 in SW 2.0 mph 2.0 mph 46 % 0.00 in 26.00 W/m2
19:54 84.4 °F 61.4 °F 29.83 in Calm     46 % 0.00 in 23.00 W/m2
19:59 84.0 °F 61.0 °F 29.83 in Calm   2.0 mph 46 % 0.00 in 19.00 W/m2
20:04 83.6 °F 60.7 °F 29.83 in Calm     46 % 0.00 in 16.00 W/m2
20:09 83.3 °F 61.0 °F 29.83 in SW 3.0 mph 4.0 mph 47 % 0.00 in 12.00 W/m2
20:14 83.1 °F 60.8 °F 29.83 in Calm   5.0 mph 47 % 0.00 in 9.00 W/m2
20:19 82.7 °F 61.0 °F 29.83 in Calm   1.0 mph 48 % 0.00 in 5.00 W/m2
20:24 82.2 °F 60.6 °F 29.83 in Calm   2.0 mph 48 % 0.00 in 0.00 W/m2
20:29 81.8 °F 60.2 °F 29.83 in Calm     48 % 0.00 in 0.00 W/m2
20:34 81.4 °F 59.8 °F 29.83 in Calm   1.0 mph 48 % 0.00 in 0.00 W/m2
20:39 81.0 °F 59.5 °F 29.83 in Calm     48 % 0.00 in 0.00 W/m2
20:44 80.7 °F 59.2 °F 29.83 in Calm     48 % 0.00 in 0.00 W/m2
20:49 80.3 °F 59.4 °F 29.83 in Calm     49 % 0.00 in 0.00 W/m2
20:54 80.1 °F 59.2 °F 29.83 in Calm     49 % 0.00 in 0.00 W/m2
20:59 80.0 °F 59.1 °F 29.83 in Calm     49 % 0.00 in 0.00 W/m2
21:04 79.8 °F 59.0 °F 29.84 in Calm     49 % 0.00 in 0.00 W/m2
21:09 79.6 °F 58.8 °F 29.84 in Calm     49 % 0.00 in 0.00 W/m2
21:14 79.5 °F 58.7 °F 29.84 in Calm     49 % 0.00 in 0.00 W/m2
21:19 79.4 °F 58.6 °F 29.84 in Calm     49 % 0.00 in 0.00 W/m2
21:24 79.3 °F 58.5 °F 29.84 in Calm     49 % 0.00 in 0.00 W/m2
21:29 79.1 °F 58.3 °F 29.85 in Calm     49 % 0.00 in 0.00 W/m2
21:34 79.0 °F 58.2 °F 29.84 in Calm     49 % 0.00 in 0.00 W/m2
21:39 78.8 °F 58.0 °F 29.85 in Calm     49 % 0.00 in 0.00 W/m2
21:44 78.7 °F 58.0 °F 29.85 in Calm     49 % 0.00 in 0.00 W/m2
21:49 78.6 °F 57.9 °F 29.85 in Calm     49 % 0.00 in 0.00 W/m2
21:54 78.6 °F 57.9 °F 29.85 in Calm     49 % 0.00 in 0.00 W/m2
21:59 78.5 °F 57.8 °F 29.85 in Calm     49 % 0.00 in 0.00 W/m2
22:04 78.5 °F 57.8 °F 29.85 in Calm     49 % 0.00 in 0.00 W/m2
22:09 78.5 °F 57.8 °F 29.85 in Calm     49 % 0.00 in 0.00 W/m2
22:14 78.5 °F 57.8 °F 29.85 in Calm     49 % 0.00 in 0.00 W/m2
22:19 78.5 °F 57.8 °F 29.85 in Calm     49 % 0.00 in 0.00 W/m2
22:24 78.5 °F 57.8 °F 29.85 in Calm   1.0 mph 49 % 0.00 in 0.00 W/m2
22:29 78.5 °F 57.8 °F 29.85 in Calm   1.0 mph 49 % 0.00 in 0.00 W/m2
22:34 78.5 °F 57.8 °F 29.85 in Calm   1.0 mph 49 % 0.00 in 0.00 W/m2
22:39 78.5 °F 57.8 °F 29.85 in Calm   1.0 mph 49 % 0.00 in 0.00 W/m2
22:44 78.5 °F 57.8 °F 29.85 in Calm   1.0 mph 49 % 0.00 in 0.00 W/m2
22:49 78.5 °F 57.8 °F 29.85 in SW 3.0 mph 4.0 mph 49 % 0.00 in 0.00 W/m2
22:54 78.5 °F 57.8 °F 29.85 in Calm   1.0 mph 49 % 0.00 in 0.00 W/m2
22:59 78.5 °F 57.8 °F 29.84 in Calm   1.0 mph 49 % 0.00 in 0.00 W/m2
23:04 78.5 °F 58.3 °F 29.84 in Calm   6.0 mph 50 % 0.00 in 0.00 W/m2
23:10 78.5 °F 58.3 °F 29.84 in Calm   5.0 mph 50 % 0.00 in 0.00 W/m2
23:15 78.6 °F 59.0 °F 29.85 in SSE 5.0 mph 8.0 mph 51 % 0.00 in 0.00 W/m2
23:20 78.6 °F 59.5 °F 29.84 in SSE 9.0 mph 9.0 mph 52 % 0.00 in 0.00 W/m2
23:25 78.6 °F 59.5 °F 29.84 in Calm   8.0 mph 52 % 0.00 in 0.00 W/m2
23:30 78.7 °F 59.6 °F 29.84 in Calm   9.0 mph 52 % 0.00 in 0.00 W/m2
23:35 78.7 °F 59.6 °F 29.84 in Calm   11.0 mph 52 % 0.00 in 0.00 W/m2
23:40 78.8 °F 59.7 °F 29.84 in ESE 6.0 mph 7.0 mph 52 % 0.00 in 0.00 W/m2
23:45 78.9 °F 59.8 °F 29.84 in ESE 1.0 mph 8.0 mph 52 % 0.00 in 0.00 W/m2
23:50 79.0 °F 59.9 °F 29.84 in Calm   14.0 mph 52 % 0.00 in 0.00 W/m2
23:55 79.1 °F 60.0 °F 29.84 in Calm   14.0 mph 52 % 0.00 in 0.00 W/m2
Juneau County Weather
Compliments of Weather Underground - 4.5 mb
 WU-history PHP script courtesy of   Juneau County Weather.
powered by Cumulus v1.9.3 (1059)
Ambient Weather VWS v14.00
Top Contact Website Map Copyright © 2007 - 2018 Foresthillweather.com Never base important decisions on this or any weather information obtained from the Internet